sat.trackr.live / text

‹ back to catalog

STARLINK-36146

NORAD 67426 · 2026-005Y

PAYLOAD ACTIVE UNKNOWN

§ Identity

Operator
Country
US
Launch date
2026-01-12
Launch site
AFETR
Launch vehicle
Mass (kg)
RCS (m²)

Purposes: comms

External: N2YO · Heavens-Above · Gunter

§ Orbital elements

Epoch: 2026-05-24T10:01:57.454176Z

Period
94.27 min
Inclination
43.0020°
Eccentricity
0.0001313
Mean motion
15.27579474 rev/d
Perigee alt
482.1 km
Apogee alt
484.0 km
Semi-major
6,861.2 km
B*
1.1380e-3
RAAN
170.6963°
Arg perigee
266.3424°
Mean anomaly
93.7277°
Rev number
2,026

§ Raw data

STARLINK-361461 67426U 26005Y   26144.41802609  .00031186  00000+0  11380-2 0  99982 67426  43.0020 170.6963 0001313 266.3424  93.7277 15.27579474 20269

JSON: /api/v1/satellites/67426 · /tle

For live sub-satellite position, see the globe view (requires WebGL).

§ Visibility from observer

Set your observer location to see the next 7 days of passes ≥ 10°. The values pass through the URL so the page stays shareable.

No JS? Fill the form by hand. The geolocation button needs JavaScript.